2016-10-11 00:02:07 r, 19.26m,0000000001Hz,0000276509c,0000000.600s, 018.0C,00002191
2016-10-11 00:12:07 r, 19.26m,0000000002Hz,0000277587c,0000000.602s, 018.0C,00002191
2016-10-11 00:22:07 r, 19.38m,0000000002Hz,0000310073c,0000000.673s, 018.0C,00002191
2016-10-11 00:32:07 r, 19.27m,0000000002Hz,0000279520c,0000000.607s, 018.0C,00002191
2016-10-11 00:42:07 r, 19.79m,0000000001Hz,0000449325c,0000000.975s, 017.7C,00002191
2016-10-11 00:52:07 r, 19.89m,0000000001Hz,0000490415c,0000001.064s, 017.4C,00002191
2016-10-11 01:02:07 r, 20.03m,0000000001Hz,0000559427c,0000001.214s, 017.4C,00002191
2016-10-11 01:12:07 r, 20.03m,0000000000Hz,0000563548c,0000001.223s, 017.4C,00002191
2016-10-11 01:22:07 r, 20.03m,0000000001Hz,0000563297c,0000001.222s, 017.4C,00002191
2016-10-11 01:32:07 r, 20.10m,0000000001Hz,0000601749c,0000001.306s, 017.4C,00002191
2016-10-11 01:42:07 r, 20.18m,0000000000Hz,0000643096c,0000001.396s, 017.4C,00002191
2016-10-11 01:52:07 r, 20.05m,0000000001Hz,0000573321c,0000001.244s, 017.4C,00002191
2016-10-11 02:02:07 r, 20.14m,0000000001Hz,0000621276c,0000001.348s, 017.0C,00002191
2016-10-11 02:12:07 r, 20.10m,0000000001Hz,0000598130c,0000001.298s, 017.0C,00002191
2016-10-11 02:22:07 r, 20.26m,0000000001Hz,0000692997c,0000001.504s, 017.0C,00002191
2016-10-11 02:32:07 r, 20.75m,0000000000Hz,0001079016c,0000002.342s, 017.0C,00002191
2016-10-11 02:42:07 r, 21.14m,0000000000Hz,0001539430c,0000003.341s, 016.7C,00002191
2016-10-11 02:52:07 r, 20.87m,0000000001Hz,0001201476c,0000002.607s, 016.4C,00002191
2016-10-11 03:02:07 r, 20.69m,0000000000Hz,0001015918c,0000002.205s, 016.1C,00002191
2016-10-11 03:12:07 r, 20.29m,0000000000Hz,0000712435c,0000001.546s, 016.1C,00002191
2016-10-11 03:22:07 r, 20.18m,0000000001Hz,0000643155c,0000001.396s, 016.4C,00002191
2016-10-11 03:32:07 r, 20.26m,0000000001Hz,0000688693c,0000001.495s, 016.7C,00002191
2016-10-11 03:42:07 r, 20.32m,0000000000Hz,0000729519c,0000001.583s, 016.7C,00002191
2016-10-11 03:52:07 r, 20.22m,0000000001Hz,0000669274c,0000001.452s, 017.0C,00002191
2016-10-11 04:02:07 r, 20.33m,0000000001Hz,0000736421c,0000001.598s, 017.0C,00002191
2016-10-11 04:12:07 r, 20.47m,0000000001Hz,0000841121c,0000001.825s, 017.0C,00002191
2016-10-11 04:22:07 r, 20.27m,0000000001Hz,0000697898c,0000001.515s, 017.0C,00002191
2016-10-11 04:32:07 r, 20.19m,0000000001Hz,0000648126c,0000001.407s, 017.0C,00002191
2016-10-11 04:42:07 r, 20.40m,0000000001Hz,0000785175c,0000001.704s, 017.0C,00002191
2016-10-11 04:52:07 r, 20.31m,0000000001Hz,0000722949c,0000001.569s, 017.0C,00002191
2016-10-11 05:02:07 r, 20.57m,0000000001Hz,0000917099c,0000001.990s, 017.0C,00002191
2016-10-11 05:12:07 r, 20.15m,0000000001Hz,0000629572c,0000001.366s, 016.7C,00002191
2016-10-11 05:22:07 r, 19.95m,0000000001Hz,0000521310c,0000001.131s, 016.7C,00002191
2016-10-11 05:32:07 r, 20.29m,0000000000Hz,0000710917c,0000001.543s, 016.7C,00002191
2016-10-11 05:42:07 r, 20.03m,0000000001Hz,0000557933c,0000001.211s, 016.7C,00002191
2016-10-11 05:52:07 r, 19.80m,0000000001Hz,0000454152c,0000000.986s, 017.0C,00002191
2016-10-11 06:02:07 r, 19.80m,0000000001Hz,0000452326c,0000000.982s, 016.7C,00002191
2016-10-11 06:12:07 r, 19.80m,0000000001Hz,0000453345c,0000000.984s, 016.7C,00002191
2016-10-11 06:22:07 r, 20.08m,0000000001Hz,0000586326c,0000001.272s, 016.7C,00002191
2016-10-11 06:32:07 r, 19.30m,0000000001Hz,0000290762c,0000000.631s, 016.7C,00002191
2016-10-11 06:42:07 r, 18.50m,0000000003Hz,0000138029c,0000000.300s, 016.7C,00002191
2016-10-11 06:52:07 r, 17.33m,0000000010Hz,0000046818c,0000000.102s, 016.7C,00002191
2016-10-11 07:02:07 r, 15.80m,0000000040Hz,0000011508c,0000000.025s, 016.7C,00002191
2016-10-11 07:12:07 r, 13.38m,0000000376Hz,0000000000c,0000000.000s, 016.7C,00002191
2016-10-11 07:22:09 r, 11.74m,0000001701Hz,0000000000c,0000000.000s, 016.7C,00002191
2016-10-11 07:32:07 r, 09.73m,0000010893Hz,0000000000c,0000000.000s, 016.7C,00002191
2016-10-11 07:42:07 r, 08.61m,0000030489Hz,0000000000c,0000000.000s, 016.7C,00002191
2016-10-11 07:52:07 r, 07.76m,0000066927Hz,0000000000c,0000000.000s, 016.7C,00002191
2016-10-11 08:02:07 r, 06.46m,0000220814Hz,0000000000c,0000000.000s, 016.7C,00002191
2016-10-11 08:12:07 r, 00.00m,0000428164Hz,0000000000c,0000000.000s, 016.7C,00002191
2016-10-11 08:22:07 r, 06.00m,0000337544Hz,0000000000c,0000000.000s, 016.7C,00002191
2016-10-11 08:32:07 r, 00.00m,0000473638Hz,0000000000c,0000000.000s, 016.7C,00002191
2016-10-11 08:42:07 r, 00.00m,0000596825Hz,0000000000c,0000000.000s, 016.7C,00002191
2016-10-11 08:52:07 r, 00.00m,0000596821Hz,0000000000c,0000000.000s, 016.7C,00002191
2016-10-11 09:02:07 r, 00.00m,0000596855Hz,0000000000c,0000000.000s, 016.7C,00002191
2016-10-11 09:12:07 r, 00.00m,0000596955Hz,0000000000c,0000000.000s, 017.0C,00002191
2016-10-11 09:22:07 r, 00.00m,0000596887Hz,0000000000c,0000000.000s, 016.7C,00002191
2016-10-11 09:32:07 r, 00.00m,0000596893Hz,0000000000c,0000000.000s, 017.0C,00002191
2016-10-11 09:42:07 r, 00.00m,0000596847Hz,0000000000c,0000000.000s, 017.4C,00002191
2016-10-11 09:52:07 r, 00.00m,0000596715Hz,0000000000c,0000000.000s, 017.4C,00002191
2016-10-11 10:02:07 r, 00.00m,0000596786Hz,0000000000c,0000000.000s, 017.7C,00002191
2016-10-11 10:12:07 r, 00.00m,0000596813Hz,0000000000c,0000000.000s, 017.7C,00002191
2016-10-11 10:22:07 r, 00.00m,0000596762Hz,0000000000c,0000000.000s, 017.7C,00002191
2016-10-11 10:32:07 r, 00.00m,0000596702Hz,0000000000c,0000000.000s, 018.0C,00002191
2016-10-11 10:42:07 r, 00.00m,0000596615Hz,0000000000c,0000000.000s, 018.3C,00002191
2016-10-11 10:52:07 r, 00.00m,0000596701Hz,0000000000c,0000000.000s, 018.6C,00002191
2016-10-11 11:02:07 r, 00.00m,0000596603Hz,0000000000c,0000000.000s, 018.6C,00002191
2016-10-11 11:12:07 r, 00.00m,0000596631Hz,0000000000c,0000000.000s, 019.0C,00002191
2016-10-11 11:22:07 r, 00.00m,0000596522Hz,0000000000c,0000000.000s, 019.0C,00002191
2016-10-11 11:32:07 r, 00.00m,0000596474Hz,0000000000c,0000000.000s, 019.3C,00002191
2016-10-11 11:42:07 r, 00.00m,0000596369Hz,0000000000c,0000000.000s, 019.9C,00002191
2016-10-11 12:33:15 r, 00.00m,0000597015Hz,0000000000c,0000000.000s, 012.8C,00002191
2016-10-11 12:43:15 r, 00.00m,0000596802Hz,0000000000c,0000000.000s, 016.1C,00002191
2016-10-11 12:53:15 r, 00.00m,0000596816Hz,0000000000c,0000000.000s, 017.7C,00002191
2016-10-11 13:03:15 r, 00.00m,0000596732Hz,0000000000c,0000000.000s, 018.3C,00002191
2016-10-11 13:13:15 r, 00.00m,0000596773Hz,0000000000c,0000000.000s, 018.6C,00002191
2016-10-11 13:23:15 r, 00.00m,0000596562Hz,0000000000c,0000000.000s, 018.6C,00002191
2016-10-11 13:33:15 r, 00.00m,0000596781Hz,0000000000c,0000000.000s, 018.6C,00002191
2016-10-11 13:43:15 r, 00.00m,0000596582Hz,0000000000c,0000000.000s, 019.0C,00002191
2016-10-11 13:53:15 r, 00.00m,0000596636Hz,0000000000c,0000000.000s, 019.0C,00002191
2016-10-11 14:03:15 r, 00.00m,0000596653Hz,0000000000c,0000000.000s, 018.6C,00002191
2016-10-11 14:13:15 r, 00.00m,0000596677Hz,0000000000c,0000000.000s, 018.6C,00002191
2016-10-11 14:23:15 r, 00.00m,0000596562Hz,0000000000c,0000000.000s, 018.6C,00002191
2016-10-11 14:33:15 r, 00.00m,0000596693Hz,0000000000c,0000000.000s, 018.6C,00002191
2016-10-11 14:43:15 r, 00.00m,0000596689Hz,0000000000c,0000000.000s, 018.3C,00002191
2016-10-11 14:53:15 r, 00.00m,0000596676Hz,0000000000c,0000000.000s, 018.3C,00002191
2016-10-11 15:03:15 r, 00.00m,0000596703Hz,0000000000c,0000000.000s, 018.3C,00002191
2016-10-11 15:13:15 r, 00.00m,0000596737Hz,0000000000c,0000000.000s, 018.3C,00002191
2016-10-11 15:23:15 r, 00.00m,0000596796Hz,0000000000c,0000000.000s, 018.0C,00002191
2016-10-11 15:33:15 r, 00.00m,0000596760Hz,0000000000c,0000000.000s, 017.7C,00002191
2016-10-11 15:43:15 r, 00.00m,0000596679Hz,0000000000c,0000000.000s, 018.0C,00002191
2016-10-11 15:53:15 r, 00.00m,0000596736Hz,0000000000c,0000000.000s, 018.0C,00002191
2016-10-11 16:03:15 r, 00.00m,0000596676Hz,0000000000c,0000000.000s, 018.0C,00002191
2016-10-11 16:13:15 r, 00.00m,0000596736Hz,0000000000c,0000000.000s, 017.7C,00002191
2016-10-11 16:23:15 r, 00.00m,0000596764Hz,0000000000c,0000000.000s, 017.4C,00002191
2016-10-11 16:33:15 r, 00.00m,0000596745Hz,0000000000c,0000000.000s, 017.4C,00002191
2016-10-11 16:43:15 r, 00.00m,0000596865Hz,0000000000c,0000000.000s, 017.7C,00002191
2016-10-11 16:53:15 r, 00.00m,0000596842Hz,0000000000c,0000000.000s, 017.7C,00002191
2016-10-11 17:03:15 r, 00.00m,0000596890Hz,0000000000c,0000000.000s, 017.4C,00002191
2016-10-11 17:13:15 r, 00.00m,0000596843Hz,0000000000c,0000000.000s, 017.4C,00002191
2016-10-11 17:23:15 r, 00.00m,0000596864Hz,0000000000c,0000000.000s, 017.0C,00002191
2016-10-11 17:33:15 r, 00.00m,0000494100Hz,0000000000c,0000000.000s, 016.7C,00002191
2016-10-11 17:43:15 r, 00.00m,0000405627Hz,0000000000c,0000000.000s, 017.0C,00002191
2016-10-11 17:53:15 r, 05.90m,0000370338Hz,0000000000c,0000000.000s, 016.7C,00002191
2016-10-11 18:03:15 r, 06.06m,0000321266Hz,0000000000c,0000000.000s, 016.7C,00002191
2016-10-11 18:13:15 r, 06.11m,0000306801Hz,0000000000c,0000000.000s, 016.7C,00002191
2016-10-11 18:23:15 r, 06.49m,0000214616Hz,0000000000c,0000000.000s, 016.7C,00002191
2016-10-11 18:33:15 r, 07.20m,0000112081Hz,0000000000c,0000000.000s, 016.4C,00002191
2016-10-11 18:43:15 r, 07.85m,0000060928Hz,0000000000c,0000000.000s, 016.1C,00002191
2016-10-11 18:53:15 r, 08.91m,0000022994Hz,0000000000c,0000000.000s, 015.7C,00002191
2016-10-11 19:03:15 r, 10.37m,0000005985Hz,0000000000c,0000000.000s, 015.7C,00002191
2016-10-11 19:13:15 r, 12.27m,0000001044Hz,0000000000c,0000000.000s, 015.7C,00002191
2016-10-11 19:23:15 r, 14.36m,0000000153Hz,0000000000c,0000000.000s, 015.7C,00002191
2016-10-11 19:33:15 r, 15.98m,0000000034Hz,0000013563c,0000000.029s, 015.7C,00002191
2016-10-11 19:43:15 r, 17.58m,0000000008Hz,0000058789c,0000000.128s, 015.7C,00002191
2016-10-11 19:53:15 r, 18.10m,0000000005Hz,0000095062c,0000000.206s, 015.4C,00002191
2016-10-11 20:03:15 r, 18.43m,0000000004Hz,0000128834c,0000000.280s, 015.4C,00002191
2016-10-11 20:13:15 r, 18.51m,0000000003Hz,0000138322c,0000000.300s, 015.1C,00002191
2016-10-11 20:23:15 r, 18.28m,0000000004Hz,0000113101c,0000000.245s, 014.8C,00002191
2016-10-11 20:33:15 r, 18.21m,0000000004Hz,0000105542c,0000000.229s, 014.8C,00002191
2016-10-11 20:43:15 r, 18.63m,0000000003Hz,0000156358c,0000000.339s, 014.5C,00002191
2016-10-11 20:53:15 r, 18.65m,0000000003Hz,0000157737c,0000000.342s, 014.5C,00002191
2016-10-11 21:03:15 r, 18.51m,0000000003Hz,0000138322c,0000000.300s, 014.1C,00002191
2016-10-11 21:13:15 r, 18.31m,0000000004Hz,0000116085c,0000000.252s, 014.1C,00002191
2016-10-11 21:23:15 r, 18.22m,0000000005Hz,0000106625c,0000000.231s, 014.1C,00002191
2016-10-11 21:33:15 r, 18.18m,0000000004Hz,0000102427c,0000000.222s, 014.1C,00002191
2016-10-11 21:43:15 r, 18.17m,0000000004Hz,0000101814c,0000000.221s, 014.1C,00002191
2016-10-11 21:53:15 r, 18.35m,0000000004Hz,0000120018c,0000000.260s, 014.1C,00002191
2016-10-11 22:03:15 r, 18.84m,0000000002Hz,0000189208c,0000000.411s, 014.1C,00002191
2016-10-11 22:13:15 r, 18.49m,0000000003Hz,0000137072c,0000000.297s, 013.8C,00002191
2016-10-11 22:23:15 r, 18.80m,0000000002Hz,0000180686c,0000000.392s, 013.8C,00002191
2016-10-11 22:33:15 r, 18.15m,0000000004Hz,0000099799c,0000000.217s, 013.5C,00002191
2016-10-11 22:43:15 r, 18.53m,0000000004Hz,0000141996c,0000000.308s, 013.8C,00002191
2016-10-11 22:53:15 r, 18.38m,0000000003Hz,0000122935c,0000000.267s, 013.8C,00002191
2016-10-11 23:03:15 r, 18.19m,0000000004Hz,0000103743c,0000000.225s, 013.8C,00002191
2016-10-11 23:13:15 r, 18.26m,0000000004Hz,0000110560c,0000000.240s, 014.1C,00002191
2016-10-11 23:23:15 r, 18.31m,0000000004Hz,0000115839c,0000000.251s, 014.1C,00002191
2016-10-11 23:33:15 r, 18.37m,0000000004Hz,0000122639c,0000000.266s, 014.1C,00002191
2016-10-11 23:43:15 r, 18.38m,0000000004Hz,0000122940c,0000000.267s, 014.1C,00002191
2016-10-11 23:53:15 r, 18.39m,0000000004Hz,0000124090c,0000000.269s, 014.1C,00002191
